Time,TemperatureF,DewpointF,PressureIn,WindDirection,WindDirectionDegrees,WindSpeedMPH,WindSpeedGustMPH,Humidity,HourlyPrecipIn,Conditions,Clouds,dailyrainin,SolarRadiationWatts/m^2,SoftwareType,DateUTC
2013-08-08 00:02:00,62.1,58.5,29.95,NNW,328,0.0,0.0,88,0.00,,,0.00,0,Wunderground v.1.15,2013-08-08 05:02:00,
2013-08-08 00:07:00,62.3,58.7,29.95,NNW,328,0.0,0.0,88,0.00,,,0.00,0,Wunderground v.1.15,2013-08-08 05:07:00,
2013-08-08 00:12:00,62.5,58.9,29.95,NNW,328,0.0,0.0,88,0.00,,,0.00,0,Wunderground v.1.15,2013-08-08 05:12:00,
2013-08-08 00:18:00,62.6,58.7,29.95,NNW,328,0.0,0.0,87,0.00,,,0.00,0,Wunderground v.1.15,2013-08-08 05:18:00,
2013-08-08 00:23:00,62.8,58.9,29.95,NNW,328,0.0,1.0,87,0.00,,,0.00,0,Wunderground v.1.15,2013-08-08 05:23:00,
2013-08-08 00:28:00,63.0,59.1,29.95,NW,325,1.0,2.0,87,0.00,,,0.00,0,Wunderground v.1.15,2013-08-08 05:28:00,
2013-08-08 00:34:00,63.2,58.9,29.95,NNW,339,0.0,1.0,86,0.00,,,0.00,0,Wunderground v.1.15,2013-08-08 05:34:00,
2013-08-08 00:40:00,63.3,59.0,29.95,NNW,347,0.0,0.0,86,0.00,,,0.00,0,Wunderground v.1.15,2013-08-08 05:40:00,
2013-08-08 00:45:00,63.3,58.7,29.96,NNW,347,0.0,1.0,85,0.00,,,0.00,0,Wunderground v.1.15,2013-08-08 05:45:00,
2013-08-08 00:50:00,63.2,58.6,29.96,NNW,347,2.0,2.0,85,0.00,,,0.00,0,Wunderground v.1.15,2013-08-08 05:50:00,
2013-08-08 00:56:00,63.2,58.6,29.96,North,5,0.0,2.0,85,0.00,,,0.00,0,Wunderground v.1.15,2013-08-08 05:56:00,
2013-08-08 01:01:00,63.2,58.6,29.96,North,9,2.0,2.0,85,0.00,,,0.00,0,Wunderground v.1.15,2013-08-08 06:01:00,
2013-08-08 01:06:00,63.1,58.5,29.96,North,9,2.0,2.0,85,0.00,,,0.00,0,Wunderground v.1.15,2013-08-08 06:06:00,
2013-08-08 01:12:00,63.0,58.4,29.96,North,360,0.0,1.0,85,0.00,,,0.00,0,Wunderground v.1.15,2013-08-08 06:12:00,
2013-08-08 01:17:00,62.9,58.3,29.96,North,360,0.0,3.0,85,0.00,,,0.00,0,Wunderground v.1.15,2013-08-08 06:17:00,
2013-08-08 01:23:00,62.8,58.2,29.96,NNE,12,3.0,3.0,85,0.00,,,0.00,0,Wunderground v.1.15,2013-08-08 06:23:00,
2013-08-08 01:29:00,62.8,58.2,29.96,NNE,24,1.0,3.0,85,0.00,,,0.00,0,Wunderground v.1.15,2013-08-08 06:29:00,
2013-08-08 01:34:00,62.8,58.2,29.96,NNE,12,2.0,2.0,85,0.00,,,0.00,0,Wunderground v.1.15,2013-08-08 06:34:00,
2013-08-08 01:39:00,62.8,58.2,29.97,NNE,13,0.0,2.0,85,0.00,,,0.00,0,Wunderground v.1.15,2013-08-08 06:39:00,
2013-08-08 01:45:00,62.8,58.2,29.97,NNE,12,0.0,1.0,85,0.00,,,0.00,0,Wunderground v.1.15,2013-08-08 06:45:00,
2013-08-08 01:50:00,62.7,58.1,29.97,NNE,12,3.0,3.0,85,0.00,,,0.00,0,Wunderground v.1.15,2013-08-08 06:50:00,
2013-08-08 01:55:00,62.5,58.3,29.97,NNE,26,1.0,3.0,86,0.00,,,0.00,0,Wunderground v.1.15,2013-08-08 06:55:00,
2013-08-08 02:01:00,62.3,57.7,29.97,North,360,2.0,2.0,85,0.00,,,0.00,0,Wunderground v.1.15,2013-08-08 07:01:00,
2013-08-08 02:06:00,62.2,58.0,29.97,North,360,0.0,4.0,86,0.00,,,0.00,0,Wunderground v.1.15,2013-08-08 07:06:00,
2013-08-08 02:11:00,62.1,57.9,29.97,North,360,1.0,1.0,86,0.00,,,0.00,0,Wunderground v.1.15,2013-08-08 07:11:00,
2013-08-08 02:16:00,62.0,57.8,29.97,North,360,0.0,2.0,86,0.00,,,0.00,0,Wunderground v.1.15,2013-08-08 07:16:00,
2013-08-08 02:21:00,61.9,57.7,29.98,North,360,0.0,2.0,86,0.00,,,0.00,0,Wunderground v.1.15,2013-08-08 07:21:00,
2013-08-08 02:26:00,61.8,57.6,29.98,North,9,1.0,6.0,86,0.00,,,0.00,0,Wunderground v.1.15,2013-08-08 07:26:00,
2013-08-08 02:31:00,61.7,57.5,29.98,NNW,348,1.0,5.0,86,0.00,,,0.00,0,Wunderground v.1.15,2013-08-08 07:31:00,
2013-08-08 02:36:00,61.6,57.4,29.98,NNW,348,2.0,5.0,86,0.00,,,0.00,0,Wunderground v.1.15,2013-08-08 07:36:00,
2013-08-08 02:41:00,61.4,57.5,29.98,NNW,348,0.0,1.0,87,0.00,,,0.00,0,Wunderground v.1.15,2013-08-08 07:41:00,
2013-08-08 02:46:00,61.3,57.4,29.99,NNW,348,0.0,1.0,87,0.00,,,0.00,0,Wunderground v.1.15,2013-08-08 07:46:00,
2013-08-08 02:51:00,61.2,57.3,29.98,NNW,348,0.0,0.0,87,0.00,,,0.00,0,Wunderground v.1.15,2013-08-08 07:51:00,
2013-08-08 02:56:00,61.1,57.2,29.98,NNW,348,0.0,0.0,87,0.00,,,0.00,0,Wunderground v.1.15,2013-08-08 07:56:00,
2013-08-08 03:01:00,60.9,57.0,29.98,NNW,348,0.0,0.0,87,0.00,,,0.00,0,Wunderground v.1.15,2013-08-08 08:01:00,
2013-08-08 03:06:00,60.8,57.2,29.98,NNW,348,0.0,0.0,88,0.00,,,0.00,0,Wunderground v.1.15,2013-08-08 08:06:00,
2013-08-08 03:11:00,60.7,57.1,29.98,NNW,348,0.0,0.0,88,0.00,,,0.00,0,Wunderground v.1.15,2013-08-08 08:11:00,
2013-08-08 03:16:00,60.6,57.0,29.98,NNW,348,0.0,2.0,88,0.00,,,0.00,0,Wunderground v.1.15,2013-08-08 08:16:00,
2013-08-08 03:21:00,60.4,56.8,29.98,NNW,348,0.0,1.0,88,0.00,,,0.00,0,Wunderground v.1.15,2013-08-08 08:21:00,
2013-08-08 03:26:00,60.3,56.7,29.98,NNW,348,0.0,1.0,88,0.00,,,0.00,0,Wunderground v.1.15,2013-08-08 08:26:00,
2013-08-08 03:31:00,60.2,56.6,29.98,NNW,348,0.0,0.0,88,0.00,,,0.00,0,Wunderground v.1.15,2013-08-08 08:31:00,
2013-08-08 03:36:00,60.0,56.4,29.98,NNW,348,0.0,0.0,88,0.00,,,0.00,0,Wunderground v.1.15,2013-08-08 08:36:00,
2013-08-08 03:41:00,59.8,56.2,29.98,NNW,348,0.0,0.0,88,0.00,,,0.00,0,Wunderground v.1.15,2013-08-08 08:41:00,
2013-08-08 03:46:00,59.6,56.4,29.98,NNW,348,1.0,2.0,89,0.00,,,0.00,0,Wunderground v.1.15,2013-08-08 08:46:00,
2013-08-08 03:51:00,59.6,56.4,29.98,NNW,348,0.0,3.0,89,0.00,,,0.00,0,Wunderground v.1.15,2013-08-08 08:51:00,
2013-08-08 03:56:00,59.6,56.7,29.98,NNW,348,0.0,3.0,90,0.00,,,0.00,0,Wunderground v.1.15,2013-08-08 08:56:00,
2013-08-08 04:01:00,59.6,56.7,29.98,NNW,348,2.0,3.0,90,0.00,,,0.00,0,Wunderground v.1.15,2013-08-08 09:01:00,
2013-08-08 04:06:00,59.6,56.7,29.98,NNW,348,2.0,4.0,90,0.00,,,0.00,0,Wunderground v.1.15,2013-08-08 09:06:00,
2013-08-08 04:11:00,59.6,56.7,29.97,NNW,348,1.0,2.0,90,0.00,,,0.00,0,Wunderground v.1.15,2013-08-08 09:11:00,
2013-08-08 04:16:00,59.5,56.9,29.98,NNW,348,0.0,2.0,91,0.00,,,0.00,0,Wunderground v.1.15,2013-08-08 09:16:00,
2013-08-08 04:21:00,59.5,56.9,29.98,NNE,29,1.0,1.0,91,0.00,,,0.00,0,Wunderground v.1.15,2013-08-08 09:21:00,
2013-08-08 04:26:00,59.4,56.8,29.98,NNE,29,0.0,1.0,91,0.00,,,0.00,0,Wunderground v.1.15,2013-08-08 09:26:00,
2013-08-08 04:31:00,59.4,56.8,29.98,NNE,29,0.0,0.0,91,0.00,,,0.00,0,Wunderground v.1.15,2013-08-08 09:31:00,
2013-08-08 04:36:00,59.3,57.0,29.98,NNE,29,0.0,0.0,92,0.00,,,0.00,0,Wunderground v.1.15,2013-08-08 09:36:00,
2013-08-08 04:41:00,59.4,57.1,29.98,NNE,29,0.0,0.0,92,0.00,,,0.00,0,Wunderground v.1.15,2013-08-08 09:41:00,
2013-08-08 04:46:00,59.4,57.1,29.98,NNE,29,0.0,0.0,92,0.00,,,0.00,0,Wunderground v.1.15,2013-08-08 09:46:00,
2013-08-08 04:51:00,59.4,57.1,29.98,NNE,29,0.0,0.0,92,0.00,,,0.00,0,Wunderground v.1.15,2013-08-08 09:51:00,
2013-08-08 04:56:00,59.4,57.4,29.98,NNE,29,0.0,0.0,93,0.00,,,0.00,0,Wunderground v.1.15,2013-08-08 09:56:00,
2013-08-08 05:01:00,59.5,57.5,29.98,NNE,29,0.0,0.0,93,0.00,,,0.00,0,Wunderground v.1.15,2013-08-08 10:01:00,
2013-08-08 05:06:00,59.5,57.5,29.98,NNE,29,0.0,0.0,93,0.00,,,0.00,0,Wunderground v.1.15,2013-08-08 10:06:00,
2013-08-08 05:11:00,59.6,57.6,29.98,NNE,29,0.0,0.0,93,0.00,,,0.00,0,Wunderground v.1.15,2013-08-08 10:11:00,
2013-08-08 05:16:00,59.6,57.6,29.98,NNE,29,0.0,0.0,93,0.00,,,0.00,0,Wunderground v.1.15,2013-08-08 10:16:00,
2013-08-08 05:21:00,59.7,57.7,29.98,NNE,29,0.0,0.0,93,0.00,,,0.00,0,Wunderground v.1.15,2013-08-08 10:21:00,
2013-08-08 05:26:00,59.8,57.8,29.98,NNE,29,0.0,0.0,93,0.00,,,0.00,0,Wunderground v.1.15,2013-08-08 10:26:00,
2013-08-08 05:31:00,59.8,57.8,29.98,NNE,29,0.0,0.0,93,0.00,,,0.00,0,Wunderground v.1.15,2013-08-08 10:31:00,
2013-08-08 05:36:00,59.9,58.2,29.99,NNE,29,0.0,1.0,94,0.00,,,0.00,0,Wunderground v.1.15,2013-08-08 10:36:00,
2013-08-08 05:41:00,60.0,58.3,29.98,NNE,29,0.0,0.0,94,0.00,,,0.00,0,Wunderground v.1.15,2013-08-08 10:41:00,
2013-08-08 05:46:00,60.0,58.3,29.99,NNE,29,0.0,1.0,94,0.00,,,0.00,0,Wunderground v.1.15,2013-08-08 10:46:00,
2013-08-08 05:51:00,60.0,58.3,29.98,NNE,29,0.0,0.0,94,0.00,,,0.00,0,Wunderground v.1.15,2013-08-08 10:51:00,
2013-08-08 05:56:00,60.0,58.3,29.99,NNE,29,0.0,0.0,94,0.00,,,0.00,0,Wunderground v.1.15,2013-08-08 10:56:00,
2013-08-08 06:01:00,60.1,58.4,29.99,NNE,29,0.0,1.0,94,0.00,,,0.00,5,Wunderground v.1.15,2013-08-08 11:01:00,
2013-08-08 06:06:00,60.2,58.5,29.98,NNE,29,0.0,1.0,94,0.00,,,0.00,5,Wunderground v.1.15,2013-08-08 11:06:00,
2013-08-08 06:11:00,60.4,58.7,29.99,NNE,29,0.0,1.0,94,0.00,,,0.00,9,Wunderground v.1.15,2013-08-08 11:11:00,
2013-08-08 06:16:00,60.6,58.9,29.98,NNE,29,1.0,2.0,94,0.00,,,0.00,12,Wunderground v.1.15,2013-08-08 11:16:00,
2013-08-08 06:21:00,60.8,59.4,29.98,NNE,29,0.0,0.0,95,0.00,,,0.00,21,Wunderground v.1.15,2013-08-08 11:21:00,
2013-08-08 06:26:00,60.9,59.2,29.98,NNE,29,1.0,2.0,94,0.00,,,0.00,28,Wunderground v.1.15,2013-08-08 11:26:00,
2013-08-08 06:31:00,61.0,59.3,29.98,NNE,29,0.0,3.0,94,0.00,,,0.00,37,Wunderground v.1.15,2013-08-08 11:31:00,
2013-08-08 06:36:00,61.1,59.4,29.98,NNE,29,0.0,3.0,94,0.00,,,0.00,40,Wunderground v.1.15,2013-08-08 11:36:00,
2013-08-08 06:41:00,61.3,59.6,29.98,NNE,29,0.0,1.0,94,0.00,,,0.00,54,Wunderground v.1.15,2013-08-08 11:41:00,
2013-08-08 06:46:00,61.4,59.7,29.98,NNE,29,1.0,1.0,94,0.00,,,0.00,65,Wunderground v.1.15,2013-08-08 11:46:00,
2013-08-08 06:51:00,61.5,59.8,29.98,ENE,77,1.0,4.0,94,0.00,,,0.00,95,Wunderground v.1.15,2013-08-08 11:51:00,
2013-08-08 06:56:00,61.7,60.0,29.98,ENE,77,1.0,4.0,94,0.00,,,0.00,109,Wunderground v.1.15,2013-08-08 11:56:00,
2013-08-08 07:01:00,61.9,60.2,29.98,ENE,77,0.0,2.0,94,0.00,,,0.00,116,Wunderground v.1.15,2013-08-08 12:01:00,
2013-08-08 07:06:00,62.2,60.5,29.99,ENE,77,0.0,3.0,94,0.00,,,0.00,141,Wunderground v.1.15,2013-08-08 12:06:00,
2013-08-08 07:11:00,62.4,60.7,29.99,ENE,77,1.0,3.0,94,0.00,,,0.00,151,Wunderground v.1.15,2013-08-08 12:11:00,
2013-08-08 07:16:00,62.7,60.6,29.99,ENE,77,0.0,3.0,93,0.00,,,0.00,174,Wunderground v.1.15,2013-08-08 12:16:00,
2013-08-08 07:21:00,63.0,60.9,29.99,ENE,77,1.0,2.0,93,0.00,,,0.00,186,Wunderground v.1.15,2013-08-08 12:21:00,
2013-08-08 07:26:00,63.3,61.2,30.00,SE,126,2.0,5.0,93,0.00,,,0.00,204,Wunderground v.1.15,2013-08-08 12:26:00,
2013-08-08 07:31:00,63.5,61.1,30.00,ESE,103,3.0,5.0,92,0.00,,,0.00,216,Wunderground v.1.15,2013-08-08 12:31:00,
2013-08-08 07:36:00,63.8,61.4,30.00,East,100,2.0,5.0,92,0.00,,,0.00,223,Wunderground v.1.15,2013-08-08 12:36:00,
2013-08-08 07:41:00,64.1,61.4,30.00,NE,35,0.0,3.0,91,0.00,,,0.00,239,Wunderground v.1.15,2013-08-08 12:41:00,
2013-08-08 07:46:00,64.4,61.7,30.01,NE,35,1.0,3.0,91,0.00,,,0.00,239,Wunderground v.1.15,2013-08-08 12:46:00,
2013-08-08 07:51:00,64.7,61.7,30.01,NE,51,5.0,5.0,90,0.00,,,0.00,309,Wunderground v.1.15,2013-08-08 12:51:00,
2013-08-08 07:57:00,65.0,62.0,30.01,ENE,78,4.0,7.0,90,0.00,,,0.00,311,Wunderground v.1.15,2013-08-08 12:57:00,
2013-08-08 08:02:00,65.2,61.9,30.01,ESE,116,2.0,7.0,89,0.00,,,0.00,327,Wunderground v.1.15,2013-08-08 13:02:00,
2013-08-08 08:07:00,65.4,61.8,30.01,ESE,119,4.0,7.0,88,0.00,,,0.00,334,Wunderground v.1.15,2013-08-08 13:07:00,
2013-08-08 08:12:00,65.6,61.9,30.01,SE,124,5.0,8.0,88,0.00,,,0.00,369,Wunderground v.1.15,2013-08-08 13:12:00,
2013-08-08 08:17:00,65.7,62.0,30.02,SE,136,6.0,8.0,88,0.00,,,0.00,387,Wunderground v.1.15,2013-08-08 13:17:00,
2013-08-08 08:22:00,66.0,62.0,30.02,ENE,76,3.0,7.0,87,0.00,,,0.00,381,Wunderground v.1.15,2013-08-08 13:22:00,
2013-08-08 08:27:00,66.2,62.2,30.02,ESE,113,4.0,8.0,87,0.00,,,0.00,353,Wunderground v.1.15,2013-08-08 13:27:00,
2013-08-08 08:32:00,66.5,62.5,30.02,ESE,115,3.0,6.0,87,0.00,,,0.00,432,Wunderground v.1.15,2013-08-08 13:32:00,
2013-08-08 08:37:00,66.9,62.6,30.02,ESE,114,3.0,6.0,86,0.00,,,0.00,471,Wunderground v.1.15,2013-08-08 13:37:00,
2013-08-08 08:42:00,67.2,62.5,30.02,SE,125,4.0,7.0,85,0.00,,,0.00,232,Wunderground v.1.15,2013-08-08 13:42:00,
2013-08-08 08:47:00,67.4,62.7,30.02,ESE,121,3.0,7.0,85,0.00,,,0.00,431,Wunderground v.1.15,2013-08-08 13:47:00,
2013-08-08 08:52:00,67.5,62.5,30.01,SE,136,3.0,8.0,84,0.00,,,0.00,543,Wunderground v.1.15,2013-08-08 13:52:00,
2013-08-08 08:57:00,67.8,62.8,30.01,ENE,68,3.0,9.0,84,0.00,,,0.00,612,Wunderground v.1.15,2013-08-08 13:57:00,
2013-08-08 09:02:00,68.1,62.7,30.01,ESE,106,5.0,8.0,83,0.00,,,0.00,454,Wunderground v.1.15,2013-08-08 14:02:00,
2013-08-08 09:07:00,68.3,62.6,30.01,SE,129,5.0,9.0,82,0.00,,,0.00,232,Wunderground v.1.15,2013-08-08 14:07:00,
2013-08-08 09:12:00,68.5,62.8,30.01,East,90,1.0,7.0,82,0.00,,,0.00,425,Wunderground v.1.15,2013-08-08 14:12:00,
2013-08-08 09:17:00,68.8,62.7,30.01,East,98,1.0,7.0,81,0.00,,,0.00,640,Wunderground v.1.15,2013-08-08 14:17:00,
2013-08-08 09:22:00,69.1,63.0,30.01,ENE,66,7.0,8.0,81,0.00,,,0.00,329,Wunderground v.1.15,2013-08-08 14:22:00,
2013-08-08 09:27:00,69.1,62.7,30.01,ESE,121,2.0,8.0,80,0.00,,,0.00,585,Wunderground v.1.15,2013-08-08 14:27:00,
2013-08-08 09:32:00,69.1,62.7,30.01,East,98,3.0,8.0,80,0.00,,,0.00,316,Wunderground v.1.15,2013-08-08 14:32:00,
2013-08-08 09:37:00,69.3,62.9,30.01,East,91,6.0,8.0,80,0.00,,,0.00,615,Wunderground v.1.15,2013-08-08 14:37:00,
2013-08-08 09:42:00,69.3,62.5,30.01,ESE,119,5.0,6.0,79,0.00,,,0.00,357,Wunderground v.1.15,2013-08-08 14:42:00,
2013-08-08 09:47:00,69.2,62.8,30.01,ENE,63,3.0,6.0,80,0.00,,,0.00,371,Wunderground v.1.15,2013-08-08 14:47:00,
2013-08-08 09:52:00,69.4,63.3,30.01,East,82,2.0,8.0,81,0.00,,,0.00,397,Wunderground v.1.15,2013-08-08 14:52:00,
2013-08-08 09:57:00,69.9,63.4,30.01,ESE,116,4.0,8.0,80,0.00,,,0.00,754,Wunderground v.1.15,2013-08-08 14:57:00,
2013-08-08 10:02:00,70.1,62.9,30.01,SE,142,3.0,6.0,78,0.00,,,0.00,283,Wunderground v.1.15,2013-08-08 15:02:00,
2013-08-08 10:07:00,70.1,62.9,30.01,ENE,71,0.0,6.0,78,0.00,,,0.00,784,Wunderground v.1.15,2013-08-08 15:07:00,
2013-08-08 10:12:00,70.4,63.2,30.01,ESE,121,1.0,7.0,78,0.00,,,0.00,823,Wunderground v.1.15,2013-08-08 15:12:00,
2013-08-08 10:17:00,70.7,62.8,30.01,SE,130,0.0,7.0,76,0.00,,,0.00,236,Wunderground v.1.15,2013-08-08 15:17:00,
2013-08-08 10:22:00,70.9,63.7,30.01,NE,51,0.0,5.0,78,0.00,,,0.00,889,Wunderground v.1.15,2013-08-08 15:22:00,
2013-08-08 10:27:00,71.2,62.9,30.01,SE,126,2.0,6.0,75,0.00,,,0.00,805,Wunderground v.1.15,2013-08-08 15:27:00,
2013-08-08 10:32:00,71.6,62.9,30.01,SE,131,4.0,7.0,74,0.00,,,0.00,819,Wunderground v.1.15,2013-08-08 15:32:00,
2013-08-08 10:37:00,71.9,62.4,30.01,East,85,0.0,8.0,72,0.00,,,0.00,779,Wunderground v.1.15,2013-08-08 15:37:00,
2013-08-08 10:42:00,72.0,62.9,30.01,ENE,64,4.0,6.0,73,0.00,,,0.00,904,Wunderground v.1.15,2013-08-08 15:42:00,
2013-08-08 10:47:00,72.2,62.7,30.02,ESE,117,1.0,7.0,72,0.00,,,0.00,454,Wunderground v.1.15,2013-08-08 15:47:00,
2013-08-08 10:52:00,72.3,62.8,30.02,SSE,156,2.0,3.0,72,0.00,,,0.00,970,Wunderground v.1.15,2013-08-08 15:52:00,
2013-08-08 10:57:00,72.8,63.2,30.02,SE,124,2.0,7.0,72,0.00,,,0.00,791,Wunderground v.1.15,2013-08-08 15:57:00,
2013-08-08 11:02:00,73.2,62.4,30.02,NE,54,5.0,5.0,69,0.00,,,0.00,1130,Wunderground v.1.15,2013-08-08 16:02:00,
2013-08-08 11:07:00,73.2,62.0,30.02,ESE,115,3.0,5.0,68,0.00,,,0.00,454,Wunderground v.1.15,2013-08-08 16:07:00,
2013-08-08 11:12:00,73.0,62.2,30.02,SE,131,0.0,6.0,69,0.00,,,0.00,364,Wunderground v.1.15,2013-08-08 16:12:00,
2013-08-08 11:17:00,72.9,62.1,30.02,ENE,67,0.0,6.0,69,0.00,,,0.00,573,Wunderground v.1.15,2013-08-08 16:17:00,
2013-08-08 11:22:00,72.6,62.3,30.02,SE,127,0.0,6.0,70,0.00,,,0.00,413,Wunderground v.1.15,2013-08-08 16:22:00,
2013-08-08 11:27:00,72.9,63.3,30.03,South,171,3.0,6.0,72,0.00,,,0.00,849,Wunderground v.1.15,2013-08-08 16:27:00,
2013-08-08 11:32:00,72.9,62.9,30.03,SSE,155,3.0,3.0,71,0.00,,,0.00,302,Wunderground v.1.15,2013-08-08 16:32:00,
2013-08-08 11:37:00,73.0,63.8,30.03,SSE,150,3.0,5.0,73,0.00,,,0.00,949,Wunderground v.1.15,2013-08-08 16:37:00,
2013-08-08 11:42:00,73.3,63.3,30.02,SSE,151,0.0,1.0,71,0.00,,,0.00,246,Wunderground v.1.15,2013-08-08 16:42:00,
2013-08-08 11:47:00,73.1,63.5,30.02,SW,220,2.0,6.0,72,0.00,,,0.00,988,Wunderground v.1.15,2013-08-08 16:47:00,
2013-08-08 11:52:00,73.6,64.4,30.02,SSE,149,5.0,5.0,73,0.00,,,0.00,988,Wunderground v.1.15,2013-08-08 16:52:00,
2013-08-08 11:57:00,74.0,63.6,30.02,SSE,161,3.0,7.0,70,0.00,,,0.00,1013,Wunderground v.1.15,2013-08-08 16:57:00,
2013-08-08 12:02:00,74.4,64.4,30.02,WSW,243,0.0,3.0,71,0.00,,,0.00,1018,Wunderground v.1.15,2013-08-08 17:02:00,
2013-08-08 12:07:00,74.7,64.7,30.02,SSE,166,0.0,8.0,71,0.00,,,0.00,1002,Wunderground v.1.15,2013-08-08 17:07:00,
2013-08-08 12:13:00,74.9,63.2,30.01,SE,137,4.0,6.0,67,0.00,,,0.00,1011,Wunderground v.1.15,2013-08-08 17:13:00,
2013-08-08 12:18:00,74.9,64.0,30.02,South,184,1.0,6.0,69,0.00,,,0.00,939,Wunderground v.1.15,2013-08-08 17:18:00,
2013-08-08 12:23:00,74.9,63.6,30.01,WSW,245,1.0,6.0,68,0.00,,,0.00,965,Wunderground v.1.15,2013-08-08 17:23:00,
2013-08-08 12:28:00,75.1,63.8,30.01,SW,234,0.0,6.0,68,0.00,,,0.00,991,Wunderground v.1.15,2013-08-08 17:28:00,
2013-08-08 12:33:00,75.3,63.6,30.01,WSW,257,2.0,6.0,67,0.00,,,0.00,1041,Wunderground v.1.15,2013-08-08 17:33:00,
2013-08-08 12:38:00,75.6,64.3,30.01,SW,230,0.0,6.0,68,0.00,,,0.00,928,Wunderground v.1.15,2013-08-08 17:38:00,
2013-08-08 12:43:00,76.1,63.9,30.00,South,176,0.0,7.0,66,0.00,,,0.00,970,Wunderground v.1.15,2013-08-08 17:43:00,
2013-08-08 12:48:00,76.3,64.1,30.00,South,169,2.0,7.0,66,0.00,,,0.00,976,Wunderground v.1.15,2013-08-08 17:48:00,
2013-08-08 12:53:00,76.5,63.9,30.00,WSW,248,2.0,5.0,65,0.00,,,0.00,1051,Wunderground v.1.15,2013-08-08 17:53:00,
2013-08-08 12:58:00,76.2,63.6,30.00,SSW,192,0.0,5.0,65,0.00,,,0.00,970,Wunderground v.1.15,2013-08-08 17:58:00,
2013-08-08 13:03:00,76.2,64.0,30.00,South,169,1.0,5.0,66,0.00,,,0.00,979,Wunderground v.1.15,2013-08-08 18:03:00,
2013-08-08 13:08:00,76.5,64.7,30.00,WSW,240,1.0,6.0,67,0.00,,,0.00,984,Wunderground v.1.15,2013-08-08 18:08:00,
2013-08-08 13:13:00,76.6,64.0,29.99,South,175,1.0,5.0,65,0.00,,,0.00,979,Wunderground v.1.15,2013-08-08 18:13:00,
2013-08-08 13:18:00,76.3,64.5,29.99,SSE,159,4.0,6.0,67,0.00,,,0.00,986,Wunderground v.1.15,2013-08-08 18:18:00,
2013-08-08 13:23:00,76.2,64.0,29.99,WSW,254,1.0,4.0,66,0.00,,,0.00,998,Wunderground v.1.15,2013-08-08 18:23:00,
2013-08-08 13:28:00,76.6,64.8,30.00,SW,235,1.0,5.0,67,0.00,,,0.00,951,Wunderground v.1.15,2013-08-08 18:28:00,
2013-08-08 13:33:00,77.1,63.5,29.99,South,173,0.0,5.0,63,0.00,,,0.00,944,Wunderground v.1.15,2013-08-08 18:33:00,
2013-08-08 13:38:00,77.5,62.0,30.00,WSW,239,0.0,5.0,59,0.00,,,0.00,990,Wunderground v.1.15,2013-08-08 18:38:00,
2013-08-08 13:43:00,78.0,61.0,30.00,WSW,242,0.0,3.0,56,0.00,,,0.00,1051,Wunderground v.1.15,2013-08-08 18:43:00,
2013-08-08 13:48:00,78.4,61.4,30.00,South,178,0.0,4.0,56,0.00,,,0.00,1044,Wunderground v.1.15,2013-08-08 18:48:00,
2013-08-08 13:53:00,78.0,61.5,29.99,SSE,157,0.0,6.0,57,0.00,,,0.00,327,Wunderground v.1.15,2013-08-08 18:53:00,
2013-08-08 13:58:00,77.2,62.2,29.99,SSE,159,3.0,6.0,60,0.00,,,0.00,327,Wunderground v.1.15,2013-08-08 18:58:00,
2013-08-08 14:03:00,76.7,61.3,29.99,SSE,155,2.0,4.0,59,0.00,,,0.00,336,Wunderground v.1.15,2013-08-08 19:03:00,
2013-08-08 14:08:00,76.4,62.0,29.99,ESE,107,1.0,4.0,61,0.00,,,0.00,322,Wunderground v.1.15,2013-08-08 19:08:00,
2013-08-08 14:13:00,76.3,62.8,29.98,East,100,1.0,6.0,63,0.00,,,0.00,1085,Wunderground v.1.15,2013-08-08 19:13:00,
2013-08-08 14:18:00,76.9,62.4,29.99,ENE,68,1.0,6.0,61,0.00,,,0.00,1018,Wunderground v.1.15,2013-08-08 19:18:00,
2013-08-08 14:23:00,77.3,62.3,29.98,East,100,5.0,6.0,60,0.00,,,0.00,972,Wunderground v.1.15,2013-08-08 19:23:00,
2013-08-08 14:28:00,77.5,62.0,29.98,East,100,2.0,6.0,59,0.00,,,0.00,378,Wunderground v.1.15,2013-08-08 19:28:00,
2013-08-08 14:33:00,77.5,61.1,29.98,East,100,0.0,2.0,57,0.00,,,0.00,332,Wunderground v.1.15,2013-08-08 19:33:00,
2013-08-08 14:38:00,77.6,62.6,29.98,East,100,1.0,2.0,60,0.00,,,0.00,888,Wunderground v.1.15,2013-08-08 19:38:00,
2013-08-08 14:43:00,78.0,62.5,29.98,SSW,200,0.0,6.0,59,0.00,,,0.00,793,Wunderground v.1.15,2013-08-08 19:43:00,
2013-08-08 14:48:00,77.8,61.3,29.98,SSE,167,4.0,6.0,57,0.00,,,0.00,877,Wunderground v.1.15,2013-08-08 19:48:00,
2013-08-08 14:53:00,77.6,61.2,29.98,South,175,1.0,2.0,57,0.00,,,0.00,867,Wunderground v.1.15,2013-08-08 19:53:00,
2013-08-08 14:58:00,77.7,61.3,29.97,SSE,166,0.0,4.0,57,0.00,,,0.00,229,Wunderground v.1.15,2013-08-08 19:58:00,
2013-08-08 15:03:00,77.3,60.9,29.98,SSE,163,0.0,3.0,57,0.00,,,0.00,246,Wunderground v.1.15,2013-08-08 20:03:00,
2013-08-08 15:09:00,77.0,62.0,29.97,SSE,163,0.0,3.0,60,0.00,,,0.00,251,Wunderground v.1.15,2013-08-08 20:09:00,
2013-08-08 15:14:00,76.9,61.0,29.97,SSE,163,3.0,4.0,58,0.00,,,0.00,297,Wunderground v.1.15,2013-08-08 20:14:00,
2013-08-08 15:18:00,76.5,60.1,29.97,SSE,163,0.0,4.0,57,0.00,,,0.00,274,Wunderground v.1.15,2013-08-08 20:18:00,
2013-08-08 15:24:00,76.5,61.1,29.97,SSE,163,0.0,1.0,59,0.00,,,0.00,809,Wunderground v.1.15,2013-08-08 20:24:00,
2013-08-08 15:29:00,76.6,60.7,29.97,SSE,163,0.0,1.0,58,0.00,,,0.00,267,Wunderground v.1.15,2013-08-08 20:29:00,
2013-08-08 15:34:00,76.6,60.7,29.97,SSE,163,0.0,2.0,58,0.00,,,0.00,257,Wunderground v.1.15,2013-08-08 20:34:00,
2013-08-08 15:39:00,76.5,61.1,29.97,SSE,163,0.0,2.0,59,0.00,,,0.00,751,Wunderground v.1.15,2013-08-08 20:39:00,
2013-08-08 15:44:00,76.5,61.1,29.97,SSE,163,0.0,2.0,59,0.00,,,0.00,332,Wunderground v.1.15,2013-08-08 20:44:00,
2013-08-08 15:49:00,76.5,60.6,29.97,SSE,163,0.0,2.0,58,0.00,,,0.00,218,Wunderground v.1.15,2013-08-08 20:49:00,
2013-08-08 15:54:00,76.5,61.1,29.97,SSE,163,0.0,2.0,59,0.00,,,0.00,745,Wunderground v.1.15,2013-08-08 20:54:00,
2013-08-08 15:59:00,76.8,61.9,29.97,SSE,163,1.0,3.0,60,0.00,,,0.00,717,Wunderground v.1.15,2013-08-08 20:59:00,
2013-08-08 16:04:00,77.1,61.2,29.97,SSE,163,0.0,2.0,58,0.00,,,0.00,719,Wunderground v.1.15,2013-08-08 21:04:00,
2013-08-08 16:09:00,77.4,61.9,29.96,SE,144,0.0,4.0,59,0.00,,,0.00,701,Wunderground v.1.15,2013-08-08 21:09:00,
2013-08-08 16:14:00,77.7,61.7,29.96,NNE,13,1.0,2.0,58,0.00,,,0.00,686,Wunderground v.1.15,2013-08-08 21:14:00,
2013-08-08 16:19:00,77.9,61.4,29.96,SE,146,0.0,3.0,57,0.00,,,0.00,670,Wunderground v.1.15,2013-08-08 21:19:00,
2013-08-08 16:24:00,77.8,60.8,29.96,East,94,0.0,4.0,56,0.00,,,0.00,443,Wunderground v.1.15,2013-08-08 21:24:00,
2013-08-08 16:29:00,77.6,61.2,29.96,East,94,0.0,5.0,57,0.00,,,0.00,566,Wunderground v.1.15,2013-08-08 21:29:00,
2013-08-08 16:34:00,77.6,61.2,29.96,East,94,1.0,2.0,57,0.00,,,0.00,675,Wunderground v.1.15,2013-08-08 21:34:00,
2013-08-08 16:39:00,77.8,61.3,29.96,East,94,0.0,2.0,57,0.00,,,0.00,617,Wunderground v.1.15,2013-08-08 21:39:00,
2013-08-08 16:45:00,78.0,61.0,29.96,East,94,0.0,1.0,56,0.00,,,0.00,554,Wunderground v.1.15,2013-08-08 21:45:00,
2013-08-08 16:50:00,78.3,61.8,29.95,SSE,167,4.0,4.0,57,0.00,,,0.00,582,Wunderground v.1.15,2013-08-08 21:50:00,
2013-08-08 16:55:00,78.0,62.5,29.95,South,171,0.0,4.0,59,0.00,,,0.00,582,Wunderground v.1.15,2013-08-08 21:55:00,
2013-08-08 17:01:00,78.2,62.7,29.95,South,186,0.0,1.0,59,0.00,,,0.00,566,Wunderground v.1.15,2013-08-08 22:01:00,
2013-08-08 17:06:00,78.3,61.3,29.95,South,169,3.0,3.0,56,0.00,,,0.00,480,Wunderground v.1.15,2013-08-08 22:06:00,
2013-08-08 17:11:00,77.9,60.4,29.95,South,169,0.0,1.0,55,0.00,,,0.00,399,Wunderground v.1.15,2013-08-08 22:11:00,
2013-08-08 17:16:00,77.9,60.9,29.95,South,169,0.0,1.0,56,0.00,,,0.00,557,Wunderground v.1.15,2013-08-08 22:16:00,
2013-08-08 17:22:00,78.2,62.7,29.95,South,169,0.0,0.0,59,0.00,,,0.00,436,Wunderground v.1.15,2013-08-08 22:22:00,
2013-08-08 17:27:00,78.2,62.7,29.95,SSE,165,0.0,3.0,59,0.00,,,0.00,438,Wunderground v.1.15,2013-08-08 22:27:00,
2013-08-08 17:32:00,77.8,62.3,29.95,SE,146,3.0,4.0,59,0.00,,,0.00,308,Wunderground v.1.15,2013-08-08 22:32:00,
2013-08-08 17:37:00,77.4,61.9,29.95,SE,145,0.0,4.0,59,0.00,,,0.00,297,Wunderground v.1.15,2013-08-08 22:37:00,
2013-08-08 17:43:00,77.0,62.0,29.95,SE,145,0.0,2.0,60,0.00,,,0.00,294,Wunderground v.1.15,2013-08-08 22:43:00,
2013-08-08 17:48:00,76.9,62.9,29.95,SE,146,0.0,2.0,62,0.00,,,0.00,188,Wunderground v.1.15,2013-08-08 22:48:00,
2013-08-08 17:53:00,76.6,61.7,29.96,SE,146,0.0,3.0,60,0.00,,,0.00,167,Wunderground v.1.15,2013-08-08 22:53:00,
2013-08-08 17:58:00,76.3,62.3,29.96,SE,145,0.0,3.0,62,0.00,,,0.00,130,Wunderground v.1.15,2013-08-08 22:58:00,
2013-08-08 18:03:00,76.1,63.0,29.96,SE,145,1.0,2.0,64,0.00,,,0.00,116,Wunderground v.1.15,2013-08-08 23:03:00,
2013-08-08 18:09:00,75.9,61.5,29.96,SE,145,0.0,2.0,61,0.00,,,0.00,123,Wunderground v.1.15,2013-08-08 23:09:00,
2013-08-08 18:14:00,75.7,61.8,29.96,SE,146,0.0,0.0,62,0.00,,,0.00,128,Wunderground v.1.15,2013-08-08 23:14:00,
2013-08-08 18:20:00,75.6,62.6,29.96,SE,145,0.0,2.0,64,0.00,,,0.00,120,Wunderground v.1.15,2013-08-08 23:20:00,
2013-08-08 18:25:00,75.4,63.2,29.96,SE,145,0.0,2.0,66,0.00,,,0.00,104,Wunderground v.1.15,2013-08-08 23:25:00,
2013-08-08 18:30:00,75.2,63.1,29.96,SE,145,0.0,0.0,66,0.00,,,0.00,102,Wunderground v.1.15,2013-08-08 23:30:00,
2013-08-08 18:36:00,74.9,62.8,29.96,SE,145,0.0,1.0,66,0.00,,,0.00,91,Wunderground v.1.15,2013-08-08 23:36:00,
2013-08-08 18:40:00,74.6,62.5,29.96,SE,145,1.0,1.0,66,0.00,,,0.00,79,Wunderground v.1.15,2013-08-08 23:40:00,
2013-08-08 18:46:00,74.4,62.7,29.97,SE,145,0.0,2.0,67,0.00,,,0.00,79,Wunderground v.1.15,2013-08-08 23:46:00,
2013-08-08 18:51:00,74.3,63.5,29.96,SE,145,0.0,0.0,69,0.00,,,0.00,83,Wunderground v.1.15,2013-08-08 23:51:00,
2013-08-08 18:56:00,74.1,62.4,29.96,SE,145,1.0,3.0,67,0.00,,,0.00,74,Wunderground v.1.15,2013-08-08 23:56:00,
2013-08-08 19:01:00,74.0,62.3,29.97,SE,145,0.0,1.0,67,0.00,,,0.00,77,Wunderground v.1.15,2013-08-09 00:01:00,
2013-08-08 19:07:00,73.9,62.7,29.97,SE,145,0.0,3.0,68,0.00,,,0.00,79,Wunderground v.1.15,2013-08-09 00:07:00,
2013-08-08 19:12:00,73.8,62.2,29.97,SE,145,1.0,3.0,67,0.00,,,0.00,63,Wunderground v.1.15,2013-08-09 00:12:00,
2013-08-08 19:17:00,73.7,62.5,29.97,SE,145,0.0,3.0,68,0.00,,,0.00,62,Wunderground v.1.15,2013-08-09 00:17:00,
2013-08-08 19:23:00,73.5,62.3,29.97,SE,145,0.0,2.0,68,0.00,,,0.00,49,Wunderground v.1.15,2013-08-09 00:23:00,
2013-08-08 19:28:00,73.4,62.6,29.96,SE,145,0.0,2.0,69,0.00,,,0.00,44,Wunderground v.1.15,2013-08-09 00:28:00,
2013-08-08 19:33:00,73.3,62.9,29.96,SE,145,0.0,1.0,70,0.00,,,0.00,39,Wunderground v.1.15,2013-08-09 00:33:00,
2013-08-08 19:38:00,73.1,62.7,29.97,SE,145,0.0,1.0,70,0.00,,,0.00,32,Wunderground v.1.15,2013-08-09 00:38:00,
2013-08-08 19:44:00,73.0,62.6,29.96,SE,145,0.0,2.0,70,0.00,,,0.00,23,Wunderground v.1.15,2013-08-09 00:44:00,
2013-08-08 19:49:00,72.9,62.5,29.96,SE,145,0.0,2.0,70,0.00,,,0.00,19,Wunderground v.1.15,2013-08-09 00:49:00,
2013-08-08 19:54:00,72.8,62.4,29.97,SE,145,3.0,3.0,70,0.00,,,0.00,16,Wunderground v.1.15,2013-08-09 00:54:00,
2013-08-08 20:00:00,72.6,61.8,29.97,SSE,149,5.0,5.0,69,0.00,,,0.00,11,Wunderground v.1.15,2013-08-09 01:00:00,
2013-08-08 20:05:00,72.6,61.4,29.97,SSE,149,4.0,5.0,68,0.00,,,0.00,7,Wunderground v.1.15,2013-08-09 01:05:00,
2013-08-08 20:10:00,72.6,61.4,29.97,SSE,149,2.0,2.0,68,0.00,,,0.00,5,Wunderground v.1.15,2013-08-09 01:10:00,
2013-08-08 20:16:00,72.4,61.2,29.97,SSE,149,1.0,3.0,68,0.00,,,0.00,5,Wunderground v.1.15,2013-08-09 01:16:00,
2013-08-08 20:21:00,72.2,61.0,29.97,SSE,149,0.0,1.0,68,0.00,,,0.00,0,Wunderground v.1.15,2013-08-09 01:21:00,
2013-08-08 20:26:00,72.0,61.3,29.97,SSE,149,1.0,3.0,69,0.00,,,0.00,0,Wunderground v.1.15,2013-08-09 01:26:00,
2013-08-08 20:31:00,71.8,61.1,29.96,SSE,149,0.0,2.0,69,0.00,,,0.00,0,Wunderground v.1.15,2013-08-09 01:31:00,
2013-08-08 20:36:00,71.6,60.9,29.97,SSE,149,0.0,2.0,69,0.00,,,0.00,0,Wunderground v.1.15,2013-08-09 01:36:00,
2013-08-08 20:42:00,71.5,61.2,29.97,SSE,149,0.0,1.0,70,0.00,,,0.00,0,Wunderground v.1.15,2013-08-09 01:42:00,
2013-08-08 20:47:00,71.3,61.0,29.97,SSE,149,0.0,3.0,70,0.00,,,0.00,0,Wunderground v.1.15,2013-08-09 01:47:00,
2013-08-08 20:52:00,71.1,61.2,29.97,SSE,149,0.0,2.0,71,0.00,,,0.00,0,Wunderground v.1.15,2013-08-09 01:52:00,
2013-08-08 20:58:00,70.9,61.0,29.97,SSE,149,0.0,2.0,71,0.00,,,0.00,0,Wunderground v.1.15,2013-08-09 01:58:00,
2013-08-08 21:03:00,70.6,61.1,29.97,SSE,149,0.0,1.0,72,0.00,,,0.00,0,Wunderground v.1.15,2013-08-09 02:03:00,
2013-08-08 21:08:00,70.5,61.0,29.97,SSE,149,0.0,1.0,72,0.00,,,0.00,0,Wunderground v.1.15,2013-08-09 02:08:00,
2013-08-08 21:14:00,70.3,60.8,29.97,SSE,149,0.0,0.0,72,0.00,,,0.00,0,Wunderground v.1.15,2013-08-09 02:14:00,
2013-08-08 21:19:00,70.1,61.0,29.97,SSE,149,0.0,0.0,73,0.00,,,0.00,0,Wunderground v.1.15,2013-08-09 02:19:00,
2013-08-08 21:24:00,69.9,61.2,29.97,SSE,149,1.0,1.0,74,0.00,,,0.00,0,Wunderground v.1.15,2013-08-09 02:24:00,
2013-08-08 21:29:00,69.8,61.1,29.97,SSE,149,0.0,1.0,74,0.00,,,0.00,0,Wunderground v.1.15,2013-08-09 02:29:00,
2013-08-08 21:34:00,69.5,61.2,29.97,SSE,149,0.0,0.0,75,0.00,,,0.00,0,Wunderground v.1.15,2013-08-09 02:34:00,
2013-08-08 21:39:00,69.3,61.4,29.97,SSE,149,0.0,0.0,76,0.00,,,0.00,0,Wunderground v.1.15,2013-08-09 02:39:00,
2013-08-08 21:44:00,68.9,61.4,29.97,SSE,149,0.0,0.0,77,0.00,,,0.00,0,Wunderground v.1.15,2013-08-09 02:44:00,
2013-08-08 21:50:00,68.5,61.0,29.97,SSE,149,0.0,0.0,77,0.00,,,0.00,0,Wunderground v.1.15,2013-08-09 02:50:00,
2013-08-08 21:55:00,68.2,61.1,29.96,SSE,149,0.0,0.0,78,0.00,,,0.00,0,Wunderground v.1.15,2013-08-09 02:55:00,
2013-08-08 22:00:00,67.8,60.3,29.96,SSE,149,0.0,0.0,77,0.00,,,0.00,0,Wunderground v.1.15,2013-08-09 03:00:00,
2013-08-08 22:06:00,67.5,60.4,29.97,SSE,149,0.0,0.0,78,0.00,,,0.00,0,Wunderground v.1.15,2013-08-09 03:06:00,
2013-08-08 22:11:00,67.2,60.5,29.97,SSE,149,0.0,0.0,79,0.00,,,0.00,0,Wunderground v.1.15,2013-08-09 03:11:00,
2013-08-08 22:16:00,66.9,60.5,29.97,SSE,149,0.0,0.0,80,0.00,,,0.00,0,Wunderground v.1.15,2013-08-09 03:16:00,
2013-08-08 22:22:00,66.6,60.2,29.97,SSE,149,0.0,0.0,80,0.00,,,0.00,0,Wunderground v.1.15,2013-08-09 03:22:00,
2013-08-08 22:28:00,66.4,60.0,29.97,SSE,149,0.0,1.0,80,0.00,,,0.00,0,Wunderground v.1.15,2013-08-09 03:28:00,
2013-08-08 22:33:00,66.4,59.7,29.97,SSE,149,3.0,3.0,79,0.00,,,0.00,0,Wunderground v.1.15,2013-08-09 03:33:00,
2013-08-08 22:39:00,66.6,59.9,29.97,SSE,149,2.0,5.0,79,0.00,,,0.00,0,Wunderground v.1.15,2013-08-09 03:39:00,
2013-08-08 22:44:00,66.8,59.7,29.97,SE,132,2.0,5.0,78,0.00,,,0.00,0,Wunderground v.1.15,2013-08-09 03:44:00,
2013-08-08 22:50:00,66.9,59.8,29.97,SE,124,2.0,2.0,78,0.00,,,0.00,0,Wunderground v.1.15,2013-08-09 03:50:00,
2013-08-08 22:55:00,66.8,59.0,29.97,ESE,116,2.0,5.0,76,0.00,,,0.00,0,Wunderground v.1.15,2013-08-09 03:55:00,
2013-08-08 23:00:00,66.8,58.6,29.98,ESE,116,3.0,3.0,75,0.00,,,0.00,0,Wunderground v.1.15,2013-08-09 04:00:00,
2013-08-08 23:01:00,66.7,58.5,29.97,SSE,148,2.0,4.0,75,0.00,,,0.00,0,Wunderground v.1.15,2013-08-09 04:01:00,
2013-08-08 23:06:00,66.6,58.4,29.98,SE,127,2.0,5.0,75,0.00,,,0.00,0,Wunderground v.1.15,2013-08-09 04:06:00,
2013-08-08 23:11:00,66.5,58.3,29.98,SE,127,1.0,3.0,75,0.00,,,0.00,0,Wunderground v.1.15,2013-08-09 04:11:00,
2013-08-08 23:16:00,66.2,58.0,29.97,SE,127,2.0,5.0,75,0.00,,,0.00,0,Wunderground v.1.15,2013-08-09 04:16:00,
2013-08-08 23:22:00,66.0,57.8,29.97,SE,139,2.0,3.0,75,0.00,,,0.00,0,Wunderground v.1.15,2013-08-09 04:22:00,
2013-08-08 23:27:00,65.8,57.7,29.98,SE,139,3.0,4.0,75,0.00,,,0.00,0,Wunderground v.1.15,2013-08-09 04:27:00,
2013-08-08 23:32:00,65.7,57.6,29.98,SE,146,1.0,2.0,75,0.00,,,0.00,0,Wunderground v.1.15,2013-08-09 04:32:00,
2013-08-08 23:37:00,65.6,57.8,29.98,SE,146,1.0,4.0,76,0.00,,,0.00,0,Wunderground v.1.15,2013-08-09 04:37:00,
2013-08-08 23:42:00,65.3,57.5,29.98,SE,145,0.0,2.0,76,0.00,,,0.00,0,Wunderground v.1.15,2013-08-09 04:42:00,
2013-08-08 23:47:00,64.9,57.5,29.98,SE,146,0.0,4.0,77,0.00,,,0.00,0,Wunderground v.1.15,2013-08-09 04:47:00,
2013-08-08 23:52:00,64.5,56.8,29.98,SE,146,2.0,3.0,76,0.00,,,0.00,0,Wunderground v.1.15,2013-08-09 04:52:00,
2013-08-08 23:57:00,64.4,57.0,29.98,SE,145,1.0,5.0,77,0.00,,,0.00,0,Wunderground v.1.15,2013-08-09 04:57:00,